小惑星A/2019 T1

A/2019 T1

English version
Home page
Updated on September 18, 2021

---------------------------------------------------------------------

・ プロフィール

発見日 2019年10月8日
発見光度 20.7等
発見者 Pan-STARRS 2 (Haleakala)

・ 写真集

・ 軌道要素

Epoch 2021 Jan. 26.0 TT = JDT 2459240.5
T 2021 Jan. 14.26763 TT                                 Rudenko
q   4.2815816            (2000.0)            P               Q
z  +0.0261422      Peri.   91.03166     +0.04423665     -0.99360160
 +/-0.0000000      Node     6.95382     -0.81058119     -0.09650014
e   0.8880698      Incl.  120.86970     +0.58395313     -0.05868208
H   13.0
From 163 observations 2017 Sept. 16-2021 May 24, mean residual 0".4.

・ 光度変化

        H = 13.0  G = 0.15

---------------------------------------------------------------------

軌道要素はM.P.E.C. 2021-L04に掲載されたものです。
光度グラフはComet for Windowsで作成したものです。

---------------------------------------------------------------------

Copyright(C) Seiichi Yoshida (comet@aerith.net). All rights reserved.